Niagara Falls, NY

12:34 AM EDT on June 25, 2017 (GMT -0400)
Niagara Falls International

Weather History for KIAG - March, 2012

Change the Weather History Date:

Wednesday, March 28, 2012

  Actual Average Record
Temperature  
Mean Temperature 52 °F -  
Max Temperature 69 °F 44 °F 77 °F (1998)
Min Temperature 39 °F 29 °F 14 °F (2011)
Degree Days  
Heating Degree Days 12    
Growing Degree Days 2 (Base 50)    
Moisture  
Dew Point 36 °F    
Average Humidity 56    
Maximum Humidity 76    
Minimum Humidity 39    
Precipitation  
Precipitation 0.01 in - - ()
Sea Level Pressure  
Sea Level Pressure 29.71 in    
Wind  
Wind Speed 15 mph (WSW)    
Max Wind Speed 23 mph    
Max Gust Speed 33 mph    
Visibility 10 miles    
Events Rain , Thunderstorm    
Averages and records for this station are not official NWS values.
T = Trace of Precipitation, MM = Missing Value Source: NWS Daily Summary

Daily Weather History Graph

Daily Weather History Graph

Search for Another Location

Airport or City:

Trip Planner

Search our weather history database for the weather conditions in past years. The results will help you decide how hot, cold, wet, or windy it might be!

Date:

Astronomy

Mar. 28, 2012 Rise Set
Actual Time 7:03 AM EDT 7:38 PM EDT
Civil Twilight 6:35 AM EDT 8:06 PM EDT
Nautical Twilight 6:01 AM EDT 8:40 PM EDT
Astronomical Twilight 5:26 AM EDT 9:15 PM EDT
Moon 10:11 AM EDT (3/28) 12:46 AM EDT (3/28)
Length of Visible Light 13h 31m
Length of Day
12h 34m
Waxing Crescent, 30% of the Moon is Illuminated
Mar 28
Waxing Crescent
Mar 30
First Quarter
Apr 6
Full
Apr 13
Last Quarter
Apr 21
New

Hourly Weather History & Observations

Time (EDT) Temp. Windchill Dew Point Humidity Pressure Visibility Wind Dir Wind Speed Gust Speed Precip Events Conditions
12:53 AM 39.9 °F 35.1 °F 23.0 °F 51% 29.89 in 10.0 mi South 6.9 mph - N/A   Clear
1:53 AM 46.9 °F - 23.0 °F 39% 29.85 in 10.0 mi SW 12.7 mph - N/A   Clear
2:53 AM 48.0 °F - 24.1 °F 39% 29.81 in 10.0 mi SSW 11.5 mph - N/A   Mostly Cloudy
3:25 AM 48.2 °F - 26.6 °F 43% 29.77 in 10.0 mi SSW 11.5 mph - N/A Thunderstorm Overcast
3:53 AM 48.9 °F - 26.1 °F 41% 29.76 in 10.0 mi SSW 12.7 mph - N/A   Overcast
4:53 AM 52.0 °F - 28.9 °F 41% 29.71 in 10.0 mi SW 19.6 mph 28.8 mph N/A   Overcast
5:53 AM 54.0 °F - 32.0 °F 43% 29.68 in 10.0 mi SW 17.3 mph 27.6 mph 0.00 in   Overcast
6:53 AM 55.0 °F - 33.1 °F 43% 29.67 in 10.0 mi SW 16.1 mph 25.3 mph N/A   Overcast
7:03 AM 53.6 °F - 33.8 °F 47% 29.65 in 10.0 mi WSW 17.3 mph 21.9 mph N/A   Overcast
7:53 AM 54.0 °F - 35.1 °F 49% 29.66 in 10.0 mi SW 17.3 mph 23.0 mph N/A   Mostly Cloudy
8:53 AM 55.9 °F - 37.9 °F 51% 29.64 in 10.0 mi SW 20.7 mph 29.9 mph N/A   Scattered Clouds
9:53 AM 57.0 °F - 41.0 °F 55% 29.62 in 10.0 mi SW 18.4 mph 29.9 mph N/A   Scattered Clouds
10:53 AM 59.0 °F - 43.0 °F 55% 29.62 in 10.0 mi WSW 16.1 mph - N/A   Scattered Clouds
11:53 AM 62.1 °F - 45.0 °F 53% 29.59 in 10.0 mi SW 12.7 mph - N/A   Scattered Clouds
12:53 PM 64.0 °F - 46.9 °F 54% 29.57 in 10.0 mi SW 15.0 mph - N/A   Scattered Clouds
1:53 PM 66.0 °F - 48.0 °F 52% 29.56 in 10.0 mi SW 18.4 mph 24.2 mph N/A   Scattered Clouds
2:53 PM 64.9 °F - 43.0 °F 45% 29.58 in 10.0 mi WNW 18.4 mph 25.3 mph N/A   Mostly Cloudy
3:53 PM 62.1 °F - 42.1 °F 48% 29.61 in 10.0 mi NW 20.7 mph 27.6 mph N/A   Mostly Cloudy
4:53 PM 57.0 °F - 39.0 °F 51% 29.65 in 10.0 mi WNW 23.0 mph 33.4 mph N/A   Overcast
5:53 PM 55.9 °F - 39.0 °F 53% 29.67 in 10.0 mi WNW 18.4 mph 27.6 mph N/A   Overcast
6:53 PM 50.0 °F - 41.0 °F 71% 29.71 in 10.0 mi NW 17.3 mph - N/A   Overcast
7:53 PM 48.9 °F - 39.0 °F 69% 29.73 in 10.0 mi NW 17.3 mph 26.5 mph N/A   Overcast
8:53 PM 46.9 °F - 39.0 °F 74% 29.76 in 10.0 mi NW 16.1 mph 24.2 mph N/A   Overcast
9:04 PM 46.4 °F 40.1 °F 39.2 °F 76% 29.75 in 10.0 mi WNW 15.0 mph - 0.00 in Rain Light Rain
9:53 PM 45.0 °F 37.9 °F 37.9 °F 76% 29.79 in 10.0 mi WNW 16.1 mph - 0.01 in Rain Light Rain
10:53 PM 44.1 °F 35.9 °F 36.0 °F 73% 29.81 in 10.0 mi WNW 19.6 mph 26.5 mph 0.00 in Rain Light Rain
11:00 PM 42.8 °F 34.3 °F 35.6 °F 76% 29.79 in 10.0 mi WNW 19.6 mph 26.5 mph 0.00 in Rain Light Rain
11:15 PM 42.8 °F 34.5 °F 35.6 °F 76% 29.79 in 10.0 mi WNW 18.4 mph 26.5 mph 0.00 in   Overcast
11:53 PM 42.1 °F 34.5 °F 34.0 °F 73% 29.81 in 10.0 mi WNW 15.0 mph 26.5 mph 0.00 in   Overcast